Location: Baumgarten
(49.0970°N, 12.7493°E)
Time: 08:27:18
(UTC+00:00)

USA 267 - Pass Details

Date: 05 July 2020
Orbit: 1102 x 1106 km, 123.0° (Epoch: 02 August)

Event Time Altitude Azimuth Distance (km) Brightness Sun altitude
Exits shadow 23:21:18 23° 212° (SSW) 2,156 4.3 -18.2°
Maximum altitude 23:22:53 25° 234° (SW) 2,056 4.3 -18.2°
Drops below altitude 10° 23:28:07 10° 287° (WNW) 2,965 5.7 -18.2°
Sets 23:31:08 0° 300° (WNW) 3,927 6.5 -18.1°
